FHY221 OEJN-LTAI

Flight info

Callsign FHY221
Flight time N/A
Altitude 34000
Route MIGDA2W/34C MIGDA L677 GESON/N0457F360 DCT LAGVI Q777 RASDA M855 TOMBI TOMBI1S/36C
Aircraft A320/M-SDE3FGHIRWY/LB1

Departure

Time N/A
Airport King Abdulaziz International Airport (OEJN)

Arrival

Time 2026-05-07 19:56
Airport Antalya International Airport (LTAI)
Time Latitude Longitude Altitude Speed Heading
2026-05-07 19:56 36.90896 30.79409 178 ft 19 kts 14°
2026-05-07 19:56 36.91020 30.79474 177 ft 13 kts 31°
2026-05-07 19:56 36.91080 30.79527 177 ft 6 kts 36°
2026-05-07 19:56 36.91108 30.79553 177 ft 6 kts 36°
2026-05-07 19:57 36.91089 30.79623 176 ft 13 kts 162°
2026-05-07 19:57 36.91012 30.79621 176 ft 10 kts 185°
2026-05-07 19:57 36.90940 30.79611 176 ft 11 kts 187°
2026-05-07 19:57 36.90862 30.79599 176 ft 12 kts 187°
2026-05-07 19:58 36.90781 30.79587 176 ft 13 kts 186°
2026-05-07 19:58 36.90689 30.79576 176 ft 14 kts 186°
2026-05-07 19:58 36.90590 30.79563 176 ft 15 kts 186°
2026-05-07 19:58 36.90478 30.79549 176 ft 18 kts 186°
2026-05-07 19:59 36.90341 30.79530 176 ft 21 kts 187°
2026-05-07 19:59 36.90189 30.79508 175 ft 24 kts 186°
2026-05-07 19:59 36.90040 30.79487 176 ft 23 kts 186°
2026-05-07 19:59 36.89907 30.79468 176 ft 18 kts 186°
2026-05-07 20:00 36.89775 30.79451 176 ft 15 kts 186°
2026-05-07 20:00 36.89681 30.79451 176 ft 12 kts 148°
2026-05-07 20:00 36.89661 30.79545 176 ft 12 kts 96°
2026-05-07 20:00 36.89652 30.79650 176 ft 14 kts 96°
2026-05-07 20:01 36.89639 30.79792 176 ft 14 kts 96°
2026-05-07 20:01 36.89629 30.79905 176 ft 12 kts 96°
2026-05-07 20:01 36.89619 30.80003 176 ft 10 kts 97°
2026-05-07 20:01 36.89617 30.80078 176 ft 8 kts 68°
2026-05-07 20:02 36.89662 30.80095 176 ft 6 kts
2026-05-07 20:02 36.89696 30.80097 176 ft 3 kts
2026-05-07 20:02 36.89700 30.80098 176 ft 0 kts